"Pseudo-MPEC" for C1429Z5

Created 2025 May 16 2:31:02 UT using Find_Orb

Click here for an explanation of pseudo-MPECs

 
 Astrometry: 
     C1429Z5* C2025 05 04.34490715 40 45.080+35 14 12.05   ~5492 22.67GVNEOCPV00
     C1429Z5  C2025 05 04.35052415 40 45.289+35 14 08.20   ~5492 22.13GVNEOCPV00
     C1429Z5  C2025 05 04.35613015 40 45.498+35 14 02.98   ~5492 22.55GVNEOCPV00
     C1429Z5  C2025 05 04.36175515 40 45.689+35 13 59.09   ~5492       VNEOCPV00
     C1429Z5  C2025 05 04.38080015 40 46.510+35 13 43.00   ~54Bl 23.0 RVNEOCP691
     C1429Z5  C2025 05 04.39781015 40 47.210+35 13 29.10   ~54Bl 22.4 RVNEOCP691

Station data:
(691) Steward Observatory, Kitt Peak - Spacewatch  (N31.962174 W111.600327)
   US/Arizona.  Observer J. V. Scotti. 0.9-m f/3 reflector + CCD.
(V00) Kitt Peak-Bok  (N31.963125 W111.600190)  US/Arizona.  Observers T. A.
   Pruyne, B. M. Africano, E. J. Christensen, G. A. Farneth, D. C. Fuls, A.
   R. Gibbs, A. D. Grauer, H. Gröller, J. A. Johnson, R. A. Kowalski, S. M.
   Larson, G. J. Leonard, D. Rankin, R. L. Seaman, F. C. Shelly, K. W.
   Wierzchoś. 2.25-m reflector + 4x4K mosaic CCD.

Orbital elements:  C1429Z5
   Perihelion 2025 Jun 3.35041 +/- 35.2 TT =  8:24:35 (JD 2460829.85041)
Epoch 2025 May  4.0 TT = JDT 2460799.5   Earth MOID: 0.1017      AutoNEOCP
M 347.70030290 +/- 16               (J2000 ecliptic)
n   0.40525641 +/- 0.247            Peri.  169.04329 +/- 100
a   1.80849002 +/- 0.734            Node    82.38797 +/- 55
e   0.3845045 +/- 0.217             Incl.   13.57657 +/- 6
P   2.432/888.310d         H 24.18  G  0.15   U 11.8  SR
q 1.11311746 +/- 0.152    Q 2.50386257 +/- 3.11
From 6 observations 2025 May 4 (76.2 min); mean residual 0".27
Residuals in arcseconds: 
250504 V00  .32+  .23-    250504 V00  .10-  .33-    250504 691  .08+  .21-    
250504 V00  .11+  .39+    250504 V00  .54-  .31+    250504 691  .13+  .07+    

Ephemerides (geocentric):
Date (UTC) HH   RA             Dec           delta  r     elong  mag " sig PA
---- --------  ------------   ------------  ------ ------ -----  --- --------
2025 05 16 03  15 52 59.020   +30 11 31.03  .16916 1.1282 130.5 22.2  40d  62
2025 05 16 04  15 53 01.894   +30 09 48.52  .16899 1.1281 130.5 22.2  40d  61
2025 05 16 05  15 53 04.772   +30 08 05.68  .16883 1.1280 130.5 22.2  40d  61
2025 05 16 06  15 53 07.652   +30 06 22.51  .16866 1.1280 130.5 22.2  40d  61
2025 05 16 07  15 53 10.534   +30 04 39.00  .16850 1.1279 130.6 22.2  40d  61
2025 05 16 08  15 53 13.420   +30 02 55.16  .16833 1.1278 130.6 22.2  40d  61
2025 05 16 09  15 53 16.308   +30 01 10.99  .16817 1.1278 130.6 22.2  40d  61
2025 05 16 10  15 53 19.198   +29 59 26.48  .16800 1.1277 130.6 22.2  40d  61
2025 05 16 11  15 53 22.091   +29 57 41.64  .16784 1.1276 130.7 22.2  40d  61
2025 05 16 12  15 53 24.987   +29 55 56.46  .16768 1.1276 130.7 22.2  41d  61
2025 05 16 13  15 53 27.886   +29 54 10.94  .16751 1.1275 130.7 22.2  41d  61
2025 05 16 14  15 53 30.787   +29 52 25.09  .16735 1.1274 130.7 22.2  41d  61
2025 05 16 15  15 53 33.691   +29 50 38.89  .16719 1.1274 130.7 22.2  41d  61
2025 05 16 16  15 53 36.598   +29 48 52.36  .16702 1.1273 130.8 22.2  41d  61
2025 05 16 17  15 53 39.507   +29 47 05.48  .16686 1.1272 130.8 22.2  41d  61
2025 05 16 18  15 53 42.419   +29 45 18.27  .16669 1.1272 130.8 22.2  41d  61
2025 05 16 19  15 53 45.334   +29 43 30.71  .16653 1.1271 130.8 22.2  41d  62
2025 05 16 20  15 53 48.252   +29 41 42.80  .16637 1.1270 130.9 22.2  41d  62
2025 05 16 21  15 53 51.172   +29 39 54.56  .16620 1.1270 130.9 22.2  42d  62
2025 05 16 22  15 53 54.095   +29 38 05.97  .16604 1.1269 130.9 22.2  42d  62
2025 05 16 23  15 53 57.021   +29 36 17.03  .16588 1.1268 130.9 22.2  42d  62
2025 05 17 00  15 53 59.950   +29 34 27.75  .16572 1.1268 131.0 22.2  42d  62
2025 05 17 01  15 54 02.881   +29 32 38.12  .16555 1.1267 131.0 22.2  42d  62
2025 05 17 02  15 54 05.815   +29 30 48.14  .16539 1.1267 131.0 22.2  42d  62
2025 05 17 03  15 54 08.752   +29 28 57.82  .16523 1.1266 131.0 22.2  42d  62
2025 05 17 04  15 54 11.692   +29 27 07.14  .16506 1.1265 131.0 22.2  42d  62
2025 05 17 05  15 54 14.635   +29 25 16.12  .16490 1.1265 131.1 22.2  42d  62
2025 05 17 06  15 54 17.580   +29 23 24.74  .16474 1.1264 131.1 22.2  42d  62
2025 05 17 07  15 54 20.528   +29 21 33.01  .16458 1.1263 131.1 22.2  42d  62
2025 05 17 08  15 54 23.479   +29 19 40.93  .16441 1.1263 131.1 22.2  43d  62
2025 05 17 09  15 54 26.433   +29 17 48.49  .16425 1.1262 131.2 22.2  43d  62
2025 05 17 10  15 54 29.390   +29 15 55.70  .16409 1.1261 131.2 22.2  43d  62
2025 05 17 11  15 54 32.349   +29 14 02.56  .16393 1.1261 131.2 22.2  43d  62
2025 05 17 12  15 54 35.311   +29 12 09.05  .16377 1.1260 131.2 22.2  43d  62
2025 05 17 13  15 54 38.277   +29 10 15.20  .16360 1.1259 131.3 22.2  43d  62
2025 05 17 14  15 54 41.245   +29 08 20.98  .16344 1.1259 131.3 22.2  43d  62
2025 05 17 15  15 54 44.216   +29 06 26.40  .16328 1.1258 131.3 22.2  43d  62
2025 05 17 16  15 54 47.190   +29 04 31.47  .16312 1.1258 131.3 22.1  43d  62
2025 05 17 17  15 54 50.166   +29 02 36.17  .16296 1.1257 131.4 22.1  43d  62
2025 05 17 18  15 54 53.146   +29 00 40.51  .16280 1.1256 131.4 22.1  43d  62
2025 05 17 19  15 54 56.129   +28 58 44.49  .16264 1.1256 131.4 22.1  43d  62
2025 05 17 20  15 54 59.114   +28 56 48.11  .16247 1.1255 131.4 22.1  43d  62
2025 05 17 21  15 55 02.103   +28 54 51.37  .16231 1.1255 131.5 22.1  43d  62
2025 05 17 22  15 55 05.094   +28 52 54.25  .16215 1.1254 131.5 22.1  43d  62
2025 05 17 23  15 55 08.088   +28 50 56.78  .16199 1.1253 131.5 22.1  44d  62
2025 05 18 00  15 55 11.085   +28 48 58.93  .16183 1.1253 131.5 22.1  44d  62
2025 05 18 01  15 55 14.086   +28 47 00.72  .16167 1.1252 131.6 22.1  44d  62
2025 05 18 02  15 55 17.089   +28 45 02.15  .16151 1.1251 131.6 22.1  44d  62